EW1914 Weather Reports


Display with metric or nautical units.
time (UTC)temp
F
wind
direction
speed
MPH
gust
MPH
rain 1hr
in
rain 24hr
in
rain mn
in
humidity
%
barometer
mb
20260506203959 64 0.0 0.0 0.00 0.00 0.00 75 1020.1
20260506203000 64 0.0 0.0 0.00 0.00 0.00 79 1020.0
20260506201958 63 0.0 0.0 0.00 0.00 0.00 79 1020.0
20260506200959 63 0.0 0.0 0.00 0.00 0.00 78 1020.1
20260506193958 62 0.0 0.0 0.00 0.00 0.00 80 1020.5
20260506193000 62 0.0 0.0 0.00 0.00 0.00 79 1020.5
20260506191957 62 0.0 0.0 0.00 0.00 0.00 80 1020.5
20260506190000 61 0.0 0.0 0.00 0.00 0.00 82 1020.3
20260506184958 61 0.0 0.0 0.00 0.00 0.00 83 1020.3
20260506183958 61 0.0 0.0 0.00 0.00 0.00 83 1020.4
20260506182959 60 0.0 0.0 0.00 0.00 0.00 83 1020.3
20260506181957 60 0.0 0.0 0.00 0.00 0.00 82 1020.3
20260506180959 60 0.0 0.0 0.00 0.00 0.00 82 1020.3
20260506180002 60 0.0 0.0 0.00 0.00 0.00 81 1020.3
20260506174959 59 0.0 0.0 0.00 0.00 0.00 83 1020.3
20260506173959 59 0.0 0.0 0.00 0.00 0.00 83 1020.3
20260506173000 59 0.0 0.0 0.00 0.00 0.00 83 1020.2
20260506171959 59 0.0 0.0 0.00 0.00 0.00 83 1020.0
20260506170958 59 0.0 0.0 0.00 0.00 0.00 83 1020.1
20260506170001 58 0.0 0.0 0.00 0.00 0.00 84 1020.1
20260506164957 58 0.0 0.0 0.00 0.00 0.00 84 1020.2
20260506163957 58 0.0 0.0 0.00 0.00 0.00 85 1020.1
20260506162959 58 0.0 0.0 0.00 0.00 0.00 85 1020.1
20260506161957 58 0.0 0.0 0.00 0.00 0.00 85 1020.1
20260506160958 57 0.0 0.0 0.00 0.00 0.00 85 1019.9
20260506160000 57 0.0 0.0 0.00 0.00 0.00 85 1020.0
20260506153957 57 0.0 0.0 0.00 0.00 0.00 86 1019.4
20260506151958 57 0.0 0.0 0.00 0.00 0.00 85 1020.0
20260506150958 57 0.0 0.0 0.00 0.00 0.00 86 1020.2
20260506150006 57 0.0 0.0 0.00 0.00 0.00 86 1020.1
20260506144959 57 0.0 0.0 0.00 0.00 0.00 86 1020.1
20260506135959 57 0.0 0.0 0.00 0.00 0.00 86 1019.3
20260506134959 57 0.0 0.0 0.00 0.00 0.00 87 1019.2
20260506133958 57 0.0 0.0 0.00 0.00 0.00 87 1019.1
20260506132959 57 0.0 0.0 0.00 0.00 0.00 87 1019.0
20260506131958 57 0.0 0.0 0.00 0.00 0.00 86 1019.0
20260506130958 57 0.0 0.0 0.00 0.00 0.00 86 1018.8
20260506125959 57 0.0 0.0 0.00 0.00 0.00 86 1018.7
20260506124958 57 0.0 0.0 0.00 0.00 0.00 86 1018.6
20260506123958 57 0.0 0.0 0.00 0.00 0.00 86 1018.5
20260506122959 57 0.0 0.0 0.00 0.00 0.00 86 1018.5
20260506121957 57 0.0 0.0 0.00 0.00 0.00 86 1018.6
20260506114959 58 0.0 0.0 0.00 0.00 0.00 85 1018.5
20260506113959 58 0.0 0.0 0.00 0.00 0.00 85 1018.3
20260506112959 58 0.0 0.0 0.00 0.00 0.00 85 1018.3
20260506111958 58 0.0 0.0 0.00 0.00 0.00 85 1018.2
20260506110958 58 0.0 0.0 0.00 0.00 0.00 84 1018.1
20260506105959 58 0.0 0.0 0.00 0.00 0.00 84 1018.0
20260506104957 58 0.0 0.0 0.00 0.00 0.00 84 1017.8
20260506103958 58 0.0 0.0 0.00 0.00 0.00 84 1017.7
20260506102958 58 0.0 0.0 0.00 0.00 0.00 84 1017.6
20260506101959 58 0.0 0.0 0.00 0.00 0.00 83 1017.5
20260506095959 58 0.0 0.0 0.00 0.00 0.00 83 1017.3
20260506092958 58 0.0 0.0 0.00 0.00 0.00 83 1017.1
20260506091956 59 0.0 0.0 0.00 0.00 0.00 83 1017.1
20260506090957 59 0.0 0.0 0.00 0.00 0.00 82 1017.2
20260506085958 59 0.0 0.0 0.00 0.00 0.00 82 1017.1
20260506084957 59 0.0 0.0 0.00 0.00 0.00 82 1017.1
20260506081959 59 0.0 0.0 0.00 0.00 0.00 82 1017.0
20260506080958 59 0.0 0.0 0.00 0.00 0.00 82 1017.0
20260506071959 60 0.0 0.0 0.00 0.00 0.00 83 1016.6
20260506061959 60 0.0 0.0 0.00 0.00 0.00 85 1016.3
20260506060958 60 0.0 0.0 0.00 0.00 0.00 85 1016.1
20260506051006 59 0.0 0.0 0.00 0.00 0.00 85 1015.8
20260506044959 60 0.0 0.0 0.00 0.00 0.00 84 1015.7
20260506043958 60 0.0 0.0 0.00 0.00 0.00 83 1015.6
20260506043001 60 0.0 0.0 0.00 0.00 0.00 83 1015.4
20260506042000 60 0.0 0.0 0.00 0.00 0.00 82 1015.4
20260506041000 61 0.0 0.0 0.00 0.00 0.00 82 1015.3
20260506040000 61 0.0 0.0 0.00 0.00 0.00 81 1015.2
20260506034959 62 0.0 0.0 0.00 0.00 0.00 80 1015.0
20260506034000 62 0.0 0.0 0.00 0.00 0.00 79 1014.9
20260506031959 63 0.0 0.0 0.00 0.00 0.00 76 1014.7
20260506030958 64 0.0 0.0 0.00 0.00 0.00 75 1014.6
20260506030000 64 0.0 0.0 0.00 0.00 0.00 75 1014.6
20260506024959 64 0.0 0.0 0.00 0.00 0.00 74 1014.6
20260506021959 65 0.0 0.0 0.00 0.00 0.00 74 1014.4
20260506020959 65 0.0 0.0 0.00 0.00 0.00 73 1014.5
20260506015000 65 0.0 0.0 0.00 0.00 0.00 73 1014.4
20260506013958 65 0.0 0.0 0.00 0.00 0.00 72 1014.5
20260506013000 65 0.0 0.0 0.00 0.00 0.00 71 1014.5
20260506011958 65 0.0 0.0 0.00 0.00 0.00 71 1014.5
20260506011000 65 0.0 0.0 0.00 0.00 0.00 72 1014.5
20260506010001 65 0.0 0.0 0.00 0.00 0.00 73 1014.4
20260506004959 64 0.0 0.0 0.00 0.00 0.00 73 1014.5
20260506003958 64 0.0 0.0 0.00 0.00 0.00 74 1014.7
20260506003001 64 0.0 0.0 0.00 0.00 0.00 74 1014.6
20260506001000 64 0.0 0.0 0.00 0.00 0.00 73 1014.8
20260506000000 64 0.0 0.0 0.00 0.00 0.00 73 1014.8
20260505234959 64 0.0 0.0 0.00 0.00 0.00 72 1014.9
20260505232959 64 0.0 0.0 0.00 0.00 0.00 73 1014.9
20260505230959 64 0.0 0.0 0.00 0.00 0.00 74 1015.1
20260505230004 64 0.0 0.0 0.00 0.00 0.00 75 1015.2
20260505224958 63 0.0 0.0 0.00 0.00 0.00 75 1015.2
20260505223001 63 0.0 0.0 0.00 0.00 0.00 76 1015.4
20260505221959 63 0.0 0.0 0.00 0.00 0.00 76 1015.5
20260505220001 63 0.0 0.0 0.00 0.00 0.00 78 1015.5
20260505215000 63 0.0 0.0 0.00 0.00 0.00 77 1015.5
20260505214000 63 0.0 0.0 0.00 0.00 0.00 78 1015.6
20260505211959 62 0.0 0.0 0.00 0.00 0.00 78 1015.6
20260505210958 62 0.0 0.0 0.00 0.00 0.00 77 1015.7
20260505210002 62 0.0 0.0 0.00 0.00 0.00 78 1015.7
20260505205004 62 0.0 0.0 0.00 0.00 0.00 79 1015.8